[[{"header":{"parameterUnit":"m.s-1","parameterCategory":1,"la1":30.2991,"la2":30.254,"lo1":-89.0895,"lo2":-89.0444,"dy":0.0017,"dx":0.0017,"nx":28,"ny":28,"refTime":"2024-06-28T09:00:00:Z","depth":0,"parameterNumber":2,"parameterNumberName":"U-component_of_WINDS"},"data":[0,0,0,0,0,0,0,0,0,0,0,0,0,0,0,0,0,0,0,0,0,0,0,0,0,0,0,0,0,0,0,0,0,0,0,0,0,0,0,0,0,0,0,0,0,0,0,0,0,0,0,0,0,0,0,0,0,0,2.3334,2.3335,0,2.343,2.3431,2.3432,2.3456,2.3456,2.3455,2.3455,2.3553,2.3556,2.3559,0,0,0,0,0,0,0,0,0,0,0,0,0,2.3172,2.3175,2.3334,2.3335,2.3337,2.343,2.3431,2.3432,2.3456,2.3456,2.3455,2.3454,2.3552,2.3555,2.3559,0,0,0,0,0,0,0,0,0,0,0,0,0,2.3253,2.3176,2.3334,2.336,2.3363,2.343,2.3431,2.3433,2.3457,2.3456,2.3455,2.3454,2.355,2.3555,2.356,2.3608,0,0,2.3574,2.3576,0,0,0,0,0,0,0,0,2.3248,2.3259,2.3355,2.3358,2.3362,2.343,2.341,2.3491,2.3457,2.3421,2.3455,2.3453,2.3513,2.3521,2.3541,2.3612,2.3616,2.3575,2.3578,2.358,2.3581,0,0,0,0,0,0,0,2.3243,2.3255,2.3372,2.3356,2.3361,2.3367,2.3377,2.3426,2.3471,2.3424,2.3426,2.3437,2.3515,2.3536,2.3543,2.3618,2.3575,2.3579,2.3582,2.3584,2.3733,2.3734,0,0,0,0,0,0,2.3233,2.325,2.3369,2.3375,2.3302,2.337,2.3382,2.3409,2.347,2.3479,2.3438,2.3438,2.3528,2.3537,2.3547,2.3606,2.358,2.3584,2.3587,2.3732,2.3734,2.3735,0,0,0,0,0,0,2.3229,2.3243,2.3365,2.3313,2.3329,2.3374,2.3405,2.3412,2.3433,2.3481,2.3489,2.3451,2.3528,2.354,2.3592,2.361,2.3586,2.3591,2.3731,2.3733,2.3734,2.3726,0,0,0,0,0,0,2.3224,2.3242,2.326,2.3313,2.3332,2.3409,2.3406,2.3414,2.3441,2.3442,2.3496,2.3504,2.3528,2.3585,2.3597,2.3616,2.3594,2.373,2.3732,2.3734,2.3725,2.3727,2.3729,0,0,0,0,0,2.3218,2.3254,2.3261,2.3275,2.3356,2.341,2.3421,2.3448,2.3442,2.3461,2.3492,2.3502,2.3606,2.359,2.3604,2.3625,2.3729,2.3731,2.3734,2.3724,2.3727,2.3729,0,0,0,0,0,0,2.3201,2.3261,2.327,2.3323,2.3362,2.3414,2.3439,2.345,2.3491,2.349,2.3522,2.3534,2.3584,2.361,2.3591,2.3674,2.3667,2.3673,2.3655,2.3659,2.3661,2.3653,2.3598,0,0,0,0,0,2.3204,2.3243,2.3293,2.3336,2.3355,2.3393,2.3418,2.3436,2.3477,2.3493,2.3527,2.3566,2.3608,2.3635,2.3676,2.3729,2.3741,2.375,2.3752,2.3754,2.3758,2.3788,2.3793,2.3743,2.3743,2.3743,0,0,2.3209,2.3247,2.327,2.3333,2.3365,2.3405,2.3407,2.3449,2.3478,2.3499,2.355,2.3577,2.3623,2.3676,2.3701,2.3699,2.3774,2.3757,2.3758,2.3761,2.3791,2.3796,2.38,2.3745,2.3744,2.3744,0,0,2.324,2.3272,2.3311,2.3343,2.3391,2.3416,2.3426,2.3477,2.3495,2.3548,2.3564,2.36,2.3671,2.3703,2.3729,2.3772,2.3782,2.3784,2.3795,2.3824,2.3828,2.3831,2.3846,2.3851,2.3788,2.3788,2.3788,0,2.324,2.3301,2.333,2.3371,2.3399,2.342,2.3459,2.3489,2.3547,2.3566,2.3563,2.3653,2.3685,2.3745,2.3756,2.3776,2.3788,2.3778,2.3825,2.3829,2.3833,2.3847,2.3853,2.3788,2.3788,2.3788,2.3788,0,2.3299,2.3341,2.3367,2.3423,2.3454,2.3494,2.3529,2.3557,2.3572,2.3598,2.3651,2.369,2.374,2.3756,2.3771,2.3819,2.3816,2.3818,2.3812,2.3837,2.3851,2.3857,2.3788,2.3788,2.3788,2.3788,0,0,2.3321,2.3393,2.3402,2.3428,2.3482,2.3515,2.3556,2.3605,2.3627,2.3668,2.3703,2.3763,2.3766,2.3795,2.3814,2.3839,2.387,2.3839,2.384,2.3843,2.3925,2.3922,2.3928,2.3878,2.3879,2.388,2.3921,0,2.3358,2.3432,2.346,2.3521,2.3559,2.358,2.3616,2.3653,2.3679,2.3716,2.3744,2.3786,2.3786,2.3804,2.383,2.3861,2.3887,2.3858,2.3911,2.3912,2.3898,2.3936,2.3933,2.3969,2.3927,2.3928,2.3928,0,2.341,2.3451,2.3516,2.3566,2.3583,2.3615,2.3661,2.3696,2.3739,2.3756,2.3788,2.3806,2.385,2.3842,2.3903,2.3883,2.3906,2.3924,2.3926,2.3932,2.3921,2.3941,2.3982,2.3987,2.3937,2.3937,2.3936,0,2.3419,2.349,2.3538,2.3559,2.3619,2.3641,2.3666,2.3709,2.3736,2.3777,2.3795,2.384,2.3865,2.39,2.3929,2.392,2.3988,2.3982,2.4003,2.4002,2.4015,2.4014,2.4059,2.4031,2.4031,2.4031,2.4031,0,2.3456,2.3495,2.3542,2.3572,2.3616,2.3647,2.369,2.3717,2.3755,2.379,2.3811,2.3843,2.388,2.3918,2.3941,2.3988,2.3999,2.4014,2.402,2.4012,2.401,2.4027,2.4025,2.4032,2.4032,2.4032,2.4031,0,2.3473,2.3506,2.356,2.3612,2.3626,2.3656,2.3701,2.373,2.3757,2.3801,2.3813,2.3855,2.39,2.3933,2.3992,2.4008,2.4058,2.4064,2.4043,2.4046,2.4065,2.4062,2.4122,2.4131,2.4097,2.4097,2.4098,0,2.3495,2.3525,2.358,2.3606,2.3631,2.3671,2.3699,2.3732,2.376,2.3811,2.3835,2.3881,2.392,2.3991,2.4027,2.4071,2.4078,2.4096,2.4085,2.4076,2.4078,2.4076,2.4079,2.4098,2.4098,2.4098,2.4098,0,2.3529,2.3544,2.3584,2.363,2.3662,2.37,2.3738,2.3757,2.3796,2.3827,2.3873,2.3903,2.3963,2.4009,2.4057,2.4084,2.4097,2.4101,2.4109,2.41,2.4087,2.4094,2.4046,2.41,2.41,2.4099,2.4099,2.4099,2.3549,2.3577,2.362,2.3664,2.3695,2.373,2.376,2.3791,2.383,2.3881,2.3898,2.3946,2.3988,2.4055,2.4082,2.412,2.412,2.413,2.4133,2.4134,2.4134,2.4081,2.4129,2.4129,2.4129,2.4129,2.4129,0,2.3584,2.3613,2.3653,2.3705,2.3739,2.3749,2.3792,2.382,2.3862,2.39,2.3938,2.3991,2.4036,2.4075,2.4122,2.4144,2.4152,2.4156,2.4154,2.416,2.4132,2.412,2.4149,2.4149,2.4149,2.4149,2.4149,2.4149,2.3606,2.3654,2.3674,2.3738,2.3767,2.3814,2.3837,2.3869,2.39,2.3959,2.3996,2.4021,2.406,2.411,2.4151,2.4162,2.4178,2.418,2.4191,2.4164,2.4162,2.4159,2.4149,2.4183,2.4183,2.4217,2.4217,2.4217]},{"header":{"parameterUnit":"m.s-1","parameterCategory":1,"la1":30.2991,"la2":30.254,"lo1":-89.0895,"lo2":-89.0444,"dy":0.0017,"dx":0.0017,"nx":28,"ny":28,"refTime":"2024-06-28T09:00:00:Z","depth":0,"parameterNumber":3,"parameterNumberName":"V-component_of_WINDS"},"data":[0,0,0,0,0,0,0,0,0,0,0,0,0,0,0,0,0,0,0,0,0,0,0,0,0,0,0,0,0,0,0,0,0,0,0,0,0,0,0,0,0,0,0,0,0,0,0,0,0,0,0,0,0,0,0,0,0,0,3.4045,3.4046,0,3.4083,3.4084,3.4084,3.4093,3.4093,3.4092,3.4092,3.4127,3.4128,3.4129,0,0,0,0,0,0,0,0,0,0,0,0,0,3.3976,3.3978,3.4045,3.4046,3.4046,3.4083,3.4084,3.4084,3.4093,3.4093,3.4092,3.4092,3.4126,3.4128,3.4129,0,0,0,0,0,0,0,0,0,0,0,0,0,3.4009,3.3978,3.4045,3.4055,3.4056,3.4083,3.4084,3.4084,3.4093,3.4093,3.4092,3.4092,3.4126,3.4127,3.4129,3.4147,0,0,3.4134,3.4135,0,0,0,0,0,0,0,0,3.4007,3.4012,3.4053,3.4055,3.4056,3.4083,3.4072,3.4105,3.4093,3.4079,3.4092,3.4092,3.4112,3.4115,3.4123,3.4149,3.415,3.4135,3.4136,3.4136,3.4137,0,0,0,0,0,0,0,3.4005,3.401,3.406,3.4054,3.4055,3.4056,3.4061,3.4078,3.4097,3.408,3.4081,3.4086,3.4113,3.4121,3.4124,3.4151,3.4134,3.4136,3.4137,3.4138,3.4194,3.4194,0,0,0,0,0,0,3.4002,3.4008,3.4059,3.4061,3.4031,3.4058,3.4063,3.4075,3.4097,3.41,3.4086,3.4086,3.4118,3.4122,3.4125,3.4148,3.4136,3.4138,3.4139,3.4193,3.4194,3.4194,0,0,0,0,0,0,3.4,3.4006,3.4057,3.4035,3.4042,3.406,3.4073,3.4076,3.4084,3.4101,3.4104,3.4091,3.4118,3.4122,3.4142,3.4149,3.4139,3.414,3.4193,3.4193,3.4194,3.4193,0,0,0,0,0,0,3.3998,3.4006,3.4014,3.4035,3.4043,3.4075,3.4073,3.4077,3.4087,3.4088,3.4107,3.411,3.4118,3.4139,3.4144,3.4151,3.4142,3.4192,3.4193,3.4194,3.4193,3.4194,3.4195,0,0,0,0,0,3.3996,3.4011,3.4014,3.402,3.4053,3.4075,3.408,3.409,3.4088,3.4095,3.4107,3.4109,3.4148,3.4141,3.4146,3.4154,3.4192,3.4193,3.4194,3.4192,3.4194,3.4195,0,0,0,0,0,0,3.3988,3.4014,3.4018,3.404,3.4056,3.4077,3.4087,3.4091,3.4107,3.4106,3.4117,3.4121,3.414,3.4149,3.4142,3.4173,3.4169,3.4171,3.4167,3.4168,3.4169,3.4166,3.4143,0,0,0,0,0,3.3989,3.4006,3.4027,3.4045,3.4053,3.4069,3.4078,3.4086,3.4101,3.4108,3.412,3.4134,3.4149,3.4159,3.4174,3.4194,3.4198,3.4202,3.4203,3.4204,3.4205,3.4217,3.4219,3.4197,3.4197,3.4197,0,0,3.3991,3.4007,3.4017,3.4044,3.4057,3.4073,3.4074,3.4091,3.4103,3.411,3.4129,3.4139,3.4155,3.4175,3.4185,3.4183,3.4212,3.4205,3.4206,3.4207,3.4218,3.422,3.4222,3.4198,3.4198,3.4198,0,0,3.4003,3.4017,3.4034,3.4047,3.4068,3.4078,3.4082,3.4103,3.411,3.413,3.4136,3.4149,3.4175,3.4187,3.4196,3.4214,3.4216,3.4218,3.4223,3.4234,3.4236,3.4237,3.4244,3.4246,3.422,3.422,3.422,0,3.4002,3.4029,3.4042,3.4059,3.4071,3.4079,3.4096,3.4108,3.4131,3.4138,3.4136,3.417,3.4181,3.4204,3.4209,3.4216,3.422,3.4216,3.4235,3.4237,3.4238,3.4244,3.4247,3.422,3.422,3.422,3.422,0,3.4027,3.4045,3.4056,3.4081,3.4093,3.411,3.4125,3.4136,3.4142,3.4152,3.4172,3.4186,3.4205,3.4211,3.4216,3.4234,3.4233,3.4233,3.423,3.424,3.4246,3.4248,3.422,3.422,3.422,3.422,0,0,3.4035,3.4067,3.4071,3.4082,3.4105,3.4119,3.4136,3.4155,3.4165,3.418,3.4194,3.4216,3.4217,3.4228,3.4234,3.4244,3.4257,3.4243,3.4243,3.4245,3.4278,3.4278,3.4281,3.4259,3.4259,3.426,3.4277,0,3.405,3.4083,3.4095,3.4121,3.4138,3.4146,3.4161,3.4176,3.4186,3.42,3.4211,3.4227,3.4226,3.4232,3.4242,3.4253,3.4264,3.4252,3.4271,3.4272,3.4267,3.4284,3.4284,3.4299,3.4279,3.428,3.428,0,3.4072,3.409,3.4118,3.414,3.4148,3.4161,3.418,3.4194,3.4211,3.4217,3.423,3.4236,3.4253,3.4249,3.4272,3.4264,3.4272,3.4279,3.4279,3.4282,3.4277,3.4286,3.4304,3.4307,3.4284,3.4283,3.4283,0,3.4075,3.4106,3.4128,3.4137,3.4163,3.4172,3.4182,3.4199,3.421,3.4226,3.4234,3.4251,3.426,3.4273,3.4283,3.4279,3.4305,3.4302,3.4311,3.431,3.4316,3.4315,3.4335,3.4321,3.4321,3.4321,3.4321,0,3.4091,3.4108,3.413,3.4142,3.4161,3.4175,3.4193,3.4204,3.4219,3.4233,3.4241,3.4254,3.4267,3.4281,3.4289,3.4307,3.4311,3.4316,3.4318,3.4315,3.4315,3.4321,3.432,3.4321,3.4321,3.4321,3.4321,0,3.4098,3.4113,3.4137,3.416,3.4166,3.4179,3.4198,3.421,3.4221,3.4239,3.4244,3.426,3.4277,3.4289,3.431,3.4316,3.4335,3.4337,3.433,3.4331,3.434,3.4339,3.4364,3.4368,3.4351,3.4351,3.4351,0,3.4107,3.4121,3.4146,3.4157,3.4168,3.4186,3.4198,3.4211,3.4223,3.4244,3.4253,3.4271,3.4287,3.4314,3.4327,3.4343,3.4345,3.4353,3.4348,3.4345,3.4346,3.4345,3.4346,3.4354,3.4354,3.4354,3.4354,0,3.4122,3.4129,3.4147,3.4167,3.4182,3.4198,3.4214,3.4223,3.4239,3.4251,3.427,3.4282,3.4305,3.4323,3.4341,3.4351,3.4355,3.4356,3.4359,3.4357,3.4352,3.4355,3.4333,3.4355,3.4355,3.4355,3.4355,3.4355,3.413,3.4143,3.4163,3.4183,3.4197,3.4212,3.4225,3.4238,3.4254,3.4276,3.4282,3.4301,3.4318,3.4343,3.4353,3.4367,3.4366,3.4371,3.4372,3.4373,3.4373,3.435,3.437,3.437,3.437,3.437,3.437,0,3.4145,3.4159,3.4177,3.4201,3.4216,3.4221,3.4239,3.4251,3.4269,3.4284,3.43,3.4321,3.4339,3.4354,3.4371,3.438,3.4383,3.4384,3.4384,3.4386,3.4372,3.4368,3.4382,3.4382,3.4382,3.4382,3.4382,3.4382,3.4155,3.4177,3.4187,3.4216,3.4229,3.4249,3.426,3.4273,3.4286,3.4311,3.4326,3.4336,3.4351,3.437,3.4386,3.439,3.4396,3.4397,3.4401,3.4388,3.4387,3.4386,3.4382,3.4398,3.4398,3.4414,3.4414,3.4414]}]]